Regional Weather Roundup
Issued by NWS

Home | Current Version | Previous Version | Graphics & Text | Print | Product List | Glossary On
Versions: 1 2 3 4 5 6 7 8 9 10 11 12 13 14 15 16 17 18 19 20 21 22 23 24 25 26 27 28 29 30 31 32 33 34 35 36 37 38 39 40 41 42 43 44 45 46 47 48 49 50
000
ASUS43 KIND 290609
RWRIN

WEATHER ROUNDUP FOR INDIANA
NATIONAL WEATHER SERVICE INDIANAPOLIS IN
200 AM EDT SAT AUG 29 2015

NOTE: "FAIR" INDICATES FEW OR NO CLOUDS BELOW 12,000 FEET WITH NO
SIGNIFICANT WEATHER AND/OR OBSTRUCTIONS TO VISIBILITY.

* - STATION DOES NOT REPORT WEATHER SUCH AS PRECIPITATION OR FOG.

+ - STATION NOT QUALITY CONTROLLED BY THE NATIONAL WEATHER SERVICE.
    USE DATA WITH CAUTION...ESPECIALLY DEWPOINT AND RELATIVE
    HUMIDITY OBSERVATIONS.

INZ001>003-010>013-019-020-290700-
NORTHWEST INDIANA

CITY           SKY/WX    TMP DP  RH WIND       PRES   REMARKS
GARY /AIRPORT/ FAIR      68  59  72 SE3       30.09S
KNOX *+        FAIR      63  59  88 SE5       30.09F
LA PORTE +     FAIR      66  64  93 SE3       30.11S
6HR MIN TEMP:  65; 6HR MAX TEMP:  71;

MICHIGAN CITY+ FAIR      66  57  72 CALM      30.10S
MONTICELLO +   FAIR      66  60  80 CALM      30.09F
6HR MIN TEMP:  65; 6HR MAX TEMP:  73;

RENSSELAER +   FAIR      64  61  88 SE5       30.09S
VALPARAISO     FAIR      65  60  84 E6        30.09F
6HR MIN TEMP:  65; 6HR MAX TEMP:  72;


$$

LMZ046-743>745-290700-
SOUTHERN LAKE MICHIGAN

STATION/POSITION TIME  TEMP    WIND        PRES    WAVE
                       AIR SEA DIR/SP/G            HT
                 (UTC) (F)     (DEG/KT/KT) (MB)    (FT)
BURNS HARBOR     0500   72     120/  6/ 14 1019.3S
MICHIGAN CITY    0500   69     100/  6/  8   N/A
5NW MICH CITY    0600   70 71  160/  8/ 10   N/A     1

$$

INZ004-005-014>016-021>024-290700-
NORTH CENTRAL INDIANA

CITY           SKY/WX    TMP DP  RH WIND       PRES   REMARKS
GOSHEN         FAIR      63  58  83 E6        30.12F
6HR MIN TEMP:  63; 6HR MAX TEMP:  72;

LOGANSPORT +   FAIR      59  55  88 E5        30.11F FOG
PERU/GRISSOM   MOCLDY    63  59  86 SE5       30.10F
6HR MIN TEMP:  63; 6HR MAX TEMP:  72;

ROCHESTER +    FAIR      63  61  94 E3        30.11F
SOUTH BEND     FAIR      68  58  70 SE8       30.11F
6HR MIN TEMP:  67; 6HR MAX TEMP:  73; 6HR PCP: TRACE;

WARSAW +       FAIR      61  57  88 CALM      30.12S

$$

INZ006>009-017-018-025>027-290700-
NORTHEAST INDIANA

CITY           SKY/WX    TMP DP  RH WIND       PRES   REMARKS
ANGOLA *+      CLEAR     64  54  68 SE3       30.14S
AUBURN +       FAIR      63  57  82 CALM      30.15S
FORT WAYNE     CLOUDY    65  58  78 SE6       30.14S
6HR MIN TEMP:  64; 6HR MAX TEMP:  72;

HUNTINGTON +   FAIR      65  55  69 CALM      30.13R
6HR MIN TEMP:  65; 6HR MAX TEMP:  71;


$$

INZ028-029-035-036-043>045-051>053-290700-
WEST CENTRAL INDIANA

CITY           SKY/WX    TMP DP  RH WIND       PRES   REMARKS
CRAWFORDSVL +  FAIR      61  57  87 CALM      30.10S
6HR MIN TEMP:  60; 6HR MAX TEMP:  69;

GREENCASTLE +  FAIR      61  55  82 CALM      30.10S
LAFAYETTE      FAIR      63  57  81 E5        30.08S
6HR MIN TEMP:  63; 6HR MAX TEMP:  74;

TERRE HAUTE    FAIR      66  60  81 SE5       30.08S
6HR MIN TEMP:  63; 6HR MAX TEMP:  72;


$$

INZ030>032-037>040-046>048-054>057-064-065-290700-
CENTRAL INDIANA

CITY           SKY/WX    TMP DP  RH WIND       PRES   REMARKS
FRANKFORT +    FAIR      62  62 100 E6        30.12S
6HR MIN TEMP:  62; 6HR MAX TEMP:  69;

GREENWOOD *+   FAIR      64  55  72 SE5       30.11S
INDIANAPOLIS   MOCLDY    65  58  78 SE9       30.08S
6HR MIN TEMP:  64; 6HR MAX TEMP:  73;

-EAGLE CREEK   FAIR      67  58  72 CALM      30.10S
6HR MIN TEMP:  66; 6HR MAX TEMP:  75;

KOKOMO *+      FAIR      63  55  77 E5        30.12S
6HR MIN TEMP:  63; 6HR MAX TEMP:  70;

MARION +       FAIR      63  52  69 SE5       30.13S
MT COMFORT *+  FAIR      63  59  88 SE5       30.12S
SHELBYVILLE    FAIR      65  58  78 SE6       30.10F
6HR MIN TEMP:  62; 6HR MAX TEMP:  70;

ZIONSVILLE +   FAIR      64  58  79 SE5       30.12S
6HR MIN TEMP:  60; 6HR MAX TEMP:  71;


$$

INZ033-034-041-042-049-050-058-059-290700-
EAST CENTRAL INDIANA

CITY           SKY/WX    TMP DP  RH WIND       PRES   REMARKS
MUNCIE         FAIR      65  57  75 SE5       30.13R
6HR MIN TEMP:  60; 6HR MAX TEMP:  71;


$$

INZ060-061-067>069-081>083-085>088-290700-
SOUTHWEST INDIANA

CITY           SKY/WX    TMP DP  RH WIND       PRES   REMARKS
EVANSVILLE     FAIR      67  64  90 NE3       30.06F
6HR MIN TEMP:  67; 6HR MAX TEMP:  80;

HUNTINGBURG *+ FAIR      66  61  82 CALM      30.08S
6HR MIN TEMP:  66; 6HR MAX TEMP:  75;

WASHINGTON +   FAIR      65  61  87 CALM      30.07F
6HR MIN TEMP:  64; 6HR MAX TEMP:  74;


$$

INZ062-063-066-070>080-084-089>092-290700-
SOUTH CENTRAL AND SOUTHEAST INDIANA

CITY           SKY/WX    TMP DP  RH WIND       PRES   REMARKS
BLOOMINGTON    FAIR      63  61  93 CALM      30.10F
6HR MIN TEMP:  60; 6HR MAX TEMP:  73;

MADISON *+     FAIR      64  59  82 E5        30.13F
NORTH VERNON + FAIR      66  61  82 CALM      30.12F
SEYMOUR +      FAIR      64  61  88 CALM      30.10F

$$



USA.gov is the U.S. government's official web portal to all federal, state and local government web resources and services.